Regional Weather Roundup
Issued by NWS Jackson, KY

Home | Current Version | Previous Version | Text Only | Print | Product List | Glossary On
Versions: 1 2 3 4 5 6 7 8 9 10 11 12 13 14 15 16 17 18 19 20 21 22 23 24 25 26 27 28 29 30 31 32 33 34 35 36 37 38 39 40 41 42 43 44 45 46 47 48 49 50
000
ASUS43 KJKL 282019
RWRJKL

EAST KENTUCKY HOURLY WEATHER ROUNDUP
NATIONAL WEATHER SERVICE JACKSON KY
300 PM EST FRI NOV 28 2014

NOTE: "FAIR" INDICATES FEW OR NO CLOUDS BELOW 12,000 FEET WITH
NO SIGNIFICANT WEATHER AND/OR OBSTRUCTIONS TO VISIBILITY.

* THESE REPORTS ARE NOT UNDER NWS QUALITY CONTROL AND MAY NOT
  REPORT WEATHER SUCH AS PRECIPITATION AND FOG.

KYZ079-080-083-085-087-088-110-112-115-119-120-282100
...EASTERN KENTUCKY...

CITY           SKY/WX    TMP DP  RH WIND       PRES   REMARKS
JACKSON        MOSUNNY   34  16  47 VRB3      30.26F
LONDON         MOSUNNY   37  18  46 S8        30.27F WCI  31
SOMERSET*      PTSUNNY   37  16  41 S6        30.29F WCI  33
MONTICELLO*    SUNNY     42  18  38 S6        30.30F
HARLAN APT*    PTCLDY    37  18  44 SE6       30.26F WCI  33
HAZARD APT*    MOCLDY    36  18  48 SW5       30.27  WCI  32
BLACK MTN*       N/A     23  21  93 S6          N/A  WCI  16
PIKEVILLE APT* SUNNY     34  18  51 SE5       30.25F WCI  30
BIG SANDY*     PTCLDY    36  18  48 S5        30.27F WCI  32
MOREHEAD APT*  PTCLDY    36  18  48 VRB6      30.27F WCI  31
ASHLAND*       MOSUNNY   36  18  48 S6        30.27F WCI  31
$$

KYZ035-036-041-042-044-050-067-078-099-282100
...CENTRAL KENTUCKY...

CITY           SKY/WX    TMP DP  RH WIND       PRES   REMARKS
MT STERLING*   CLOUDY    34  18  51 SW7       30.27F WCI  28
FLEMING/MASON* SUNNY     34  18  51 S7        30.27F WCI  28
DANVILLE*      PTSUNNY   34  19  55 SW9       30.27F WCI  26
RICHMOND*      PTSUNNY   36  18  48 S7        30.26F WCI  30
LEXINGTON      PTSUNNY   35  16  45 S13       30.26F WCI  26
FRANKFORT      PTSUNNY   35  17  47 S10       30.25F WCI  27
$$

KYZ091>093-OHZ055-061-077-WVZ005-015-034-035-042-282100
...SOUTHERN OHIO/WEST VIRGINIA...

CITY           SKY/WX    TMP DP  RH WIND       PRES   REMARKS
COVINGTON      CLOUDY    35  16  45 S13       30.23F WCI  26
COLUMBUS       PTSUNNY   30  17  58 SW9       30.25F WCI  22
DAYTON         PTSUNNY   33  17  51 S8        30.22F WCI  26
WILMINGTON     MOSUNNY   32  16  51 SW15      30.22F WCI  22
HUNTINGTON     MOSUNNY   33  18  53 S6        30.27F WCI  28
CHARLESTON     CLOUDY    32  20  61 VRB7      30.29F WCI  26
PINEVILLE*     PTSUNNY   33  24  69 MISG      30.31F
BECKLEY        MOSUNNY   26  15  63 SW5       30.21F WCI  20
BLUEFIELD      MOSUNNY   28  16  60 W6        30.21F WCI  22
$$

VAZ002-007-008-TNZ017-027-036-066-071-282100
...SOUTHWEST VIRGINIA/EAST TENNESSEE...

CITY           SKY/WX    TMP DP  RH WIND       PRES   REMARKS
WISE*          CLOUDY    34  21  60 S7        30.21F WCI  28
JONESVILLE*    CLEAR     37  16  41 SW3       30.30F
ABINGDON*      MOSUNNY   34  22  60 SW9       30.26F WCI  26
BRISTOL        PTSUNNY   35  20  54 SW7       30.29F WCI  29
KNOXVILLE      MOSUNNY   41  16  36 CALM      30.30F
OAK RIDGE      SUNNY     42  16  34 VRB3      30.31F
CROSSVILLE     SUNNY     43  15  32 CALM      30.24F
NASHVILLE      MOSUNNY   47  19  33 S12       30.26F
$$

...KEY TO REMARKS...
VSB - VISIBILITY IN MILES
WCI - WIND CHILL INDEX
HX  - HEAT INDEX

$$


USA.gov is the U.S. government's official web portal to all federal, state and local government web resources and services.